QPF
0.00 0.00 0.00 0.00 0.00 0.00 0.00 0.01 0.01 0.01 0.01 0.01 0.01 0.02 0.03 0.05 0.06 0.06 0.07 0.09 0.11 0.11 0.10 0.10 0.11 0.11 0.13 0.13 0.14 0.14 0.14 0.18 0.17 0.13 0.12 0.15 0.18 0.17 0.17 0.17 0.17 0.15 0.15 0.17
0.00 0.00 0.00 0.00 0.00 0.00 0.00 0.01 0.01 0.01 0.01 0.01 0.01 0.01 0.01 0.02 0.02 0.03 0.04 0.05 0.05 0.07 0.08 0.07 0.07 0.07 0.08 0.09 0.09 0.08 0.08 0.11 0.12 0.10 0.09 0.11 0.13 0.14 0.13 0.14 0.14 0.13 0.13 0.14
0.00 0.00 0.00 0.00 0.00 0.00 0.00 0.00 0.01 0.01 0.01 0.01 0.00 0.00 0.01 0.01 0.01 0.01 0.02 0.02 0.03 0.04 0.05 0.06 0.06 0.05 0.05 0.05 0.06 0.07 0.06 0.07 0.09 0.08 0.07 0.08 0.08 0.09 0.10 0.11 0.13 0.14 0.13 0.13
0.00 0.00 0.00 0.00 0.00 0.00 0.00 0.00 0.01 0.01 0.01 0.00 0.00 0.00 0.00 0.01 0.01 0.01 0.01 0.02 0.02 0.03 0.04 0.04 0.05 0.04 0.04 0.05 0.06 0.06 0.06 0.06 0.06 0.06 0.06 0.06 0.05 0.06 0.08 0.09 0.11 0.14 0.15 0.15
0.00 0.00 0.00 0.00 0.00 0.00 0.00 0.00 0.00 0.00 0.00 0.00 0.00 0.00 0.00 0.00 0.00 0.00 0.01 0.01 0.02 0.03 0.04 0.04 0.04 0.03 0.03 0.04 0.04 0.04 0.05 0.05 0.04 0.04 0.04 0.04 0.04 0.04 0.05 0.07 0.09 0.13 0.15 0.14
0.00 0.00 0.00 0.00 0.00 0.00 0.00 0.00 0.00 0.00 0.00 0.00 0.00 0.00 0.00 0.00 0.00 0.00 0.00 0.01 0.02 0.02 0.02 0.03 0.03 0.02 0.02 0.02 0.02 0.03 0.04 0.03 0.03 0.03 0.03 0.03 0.03 0.04 0.04 0.05 0.06 0.10 0.14 0.14
0.00 0.00 0.00 0.00 0.00 0.00 0.00 0.00 0.00 0.00 0.00 0.00 0.00 0.00 0.00 0.00 0.00 0.00 0.00 0.01 0.01 0.02 0.02 0.02 0.01 0.01 0.01 0.01 0.01 0.01 0.02 0.02 0.02 0.02 0.02 0.02 0.03 0.04 0.05 0.05 0.06 0.10 0.12 0.13
0.00 0.00 0.00 0.00 0.00 0.00 0.00 0.00 0.00 0.00 0.00 0.00 0.00 0.00 0.00 0.00 0.00 0.00 0.00 0.01 0.01 0.01 0.01 0.01 0.01 0.00 0.00 0.01 0.01 0.01 0.01 0.01 0.02 0.02 0.02 0.03 0.03 0.05 0.06 0.07 0.07 0.10 0.12 0.12
0.00 0.00 0.00 0.00 0.00 0.00 0.00 0.00 0.00 0.00 0.00 0.00 0.00 0.00 0.00 0.00 0.00 0.00 0.00 0.01 0.01 0.01 0.01 0.01 0.01 0.01 0.01 0.00 0.01 0.00 0.00 0.01 0.02 0.03 0.03 0.04 0.05 0.05 0.07 0.09 0.10 0.10 0.11 0.12
0.00 0.00 0.00 0.00 0.00 0.00 0.00 0.00 0.00 0.00 0.00 0.00 0.00 0.00 0.00 0.00 0.00 0.00 0.00 0.00 0.00 0.00 0.01 0.01 0.01 0.01 0.01 0.01 0.00 0.00 0.01 0.01 0.03 0.03 0.03 0.03 0.04 0.06 0.08 0.09 0.09 0.10 0.11 0.10
0.00 0.00 0.00 0.00 0.00 0.00 0.00 0.00 0.00 0.00 0.00 0.00 0.00 0.00 0.00 0.00 0.00 0.00 0.00 0.00 0.00 0.00 0.01 0.01 0.01 0.01 0.01 0.01 0.01 0.01 0.01 0.02 0.02 0.03 0.03 0.03 0.04 0.05 0.07 0.07 0.08 0.08 0.08 0.08
0.00 0.00 0.00 0.00 0.00 0.00 0.00 0.00 0.00 0.00 0.00 0.00 0.00 0.00 0.00 0.00 0.00 0.00 0.00 0.00 0.00 0.00 0.00 0.01 0.02 0.02 0.01 0.01 0.02 0.01 0.01 0.02 0.02 0.02 0.02 0.04 0.04 0.04 0.05 0.06 0.07 0.09 0.09 0.07
0.00 0.00 0.00 0.00 0.00 0.00 0.00 0.00 0.00 0.00 0.00 0.00 0.00 0.00 0.00 0.00 0.00 0.00 0.00 0.00 0.00 0.00 0.00 0.01 0.01 0.01 0.01 0.01 0.02 0.01 0.02 0.03 0.02 0.02 0.03 0.04 0.04 0.03 0.03 0.05 0.06 0.08 0.09 0.08
0.00 0.00 0.00 0.00 0.00 0.00 0.00 0.00 0.00 0.00 0.00 0.00 0.00 0.00 0.00 0.00 0.00 0.00 0.00 0.00 0.00 0.00 0.00 0.00 0.01 0.01 0.01 0.01 0.01 0.01 0.02 0.02 0.02 0.02 0.03 0.03 0.04 0.04 0.04 0.04 0.04 0.06 0.07 0.08
0.00 0.00 0.00 0.00 0.00 0.00 0.00 0.00 0.00 0.00 0.00 0.00 0.00 0.00 0.00 0.00 0.00 0.00 0.00 0.00 0.00 0.00 0.00 0.00 0.00 0.00 0.01 0.01 0.01 0.01 0.01 0.02 0.02 0.02 0.03 0.03 0.04 0.04 0.04 0.04 0.04 0.05 0.05 0.06
0.00 0.00 0.00 0.00 0.00 0.00 0.00 0.00 0.00 0.00 0.00 0.00 0.00 0.00 0.00 0.00 0.00 0.00 0.00 0.00 0.00 0.00 0.00 0.00 0.00 0.00 0.00 0.01 0.01 0.01 0.02 0.02 0.02 0.02 0.02 0.03 0.03 0.03 0.04 0.04 0.05 0.05 0.05 0.05
0.00 0.00 0.00 0.00 0.00 0.00 0.00 0.00 0.00 0.00 0.00 0.00 0.00 0.00 0.00 0.00 0.00 0.00 0.00 0.00 0.00 0.00 0.00 0.00 0.00 0.00 0.00 0.00 0.01 0.01 0.01 0.01 0.02 0.02 0.02 0.03 0.03 0.03 0.03 0.04 0.04 0.05 0.05 0.06
0.00 0.00 0.00 0.00 0.00 0.00 0.00 0.00 0.00 0.00 0.00 0.00 0.00 0.00 0.00 0.00 0.00 0.00 0.00 0.00 0.00 0.00 0.00 0.00 0.00 0.00 0.00 0.00 0.01 0.01 0.01 0.01 0.01 0.02 0.02 0.03 0.03 0.03 0.03 0.03 0.04 0.04 0.05 0.06
0.00 0.00 0.00 0.00 0.00 0.00 0.00 0.00 0.00 0.00 0.00 0.00 0.00 0.00 0.00 0.00 0.00 0.00 0.00 0.00 0.00 0.00 0.00 0.00 0.00 0.00 0.00 0.00 0.00 0.01 0.01 0.01 0.02 0.02 0.02 0.03 0.03 0.03 0.03 0.04 0.04 0.04 0.05 0.05
0.00 0.00 0.00 0.00 0.00 0.00 0.00 0.00 0.00 0.00 0.00 0.00 0.00 0.00 0.00 0.00 0.00 0.00 0.00 0.00 0.00 0.00 0.00 0.00 0.00 0.00 0.00 0.00 0.01 0.01 0.01 0.01 0.02 0.02 0.02 0.03 0.03 0.03 0.04 0.04 0.04 0.04 0.04 0.04
0.00 0.00 0.00 0.00 0.00 0.00 0.00 0.00 0.00 0.00 0.00 0.00 0.00 0.00 0.00 0.00 0.00 0.00 0.00 0.00 0.00 0.00 0.00 0.00 0.00 0.00 0.00 0.01 0.01 0.01 0.01 0.01 0.02 0.02 0.02 0.03 0.03 0.03 0.03 0.04 0.04 0.04 0.04 0.04
0.00 0.00 0.00 0.00 0.00 0.00 0.00 0.00 0.00 0.00 0.00 0.00 0.00 0.00 0.00 0.00 0.00 0.00 0.00 0.00 0.00 0.00 0.00 0.00 0.00 0.00 0.01 0.01 0.01 0.01 0.02 0.02 0.02 0.02 0.02 0.02 0.02 0.03 0.03 0.03 0.03 0.03 0.03 0.03
0.00 0.00 0.00 0.00 0.00 0.00 0.00 0.00 0.00 0.00 0.00 0.00 0.00 0.00 0.00 0.00 0.00 0.00 0.00 0.00 0.00 0.00 0.00 0.00 0.00 0.01 0.01 0.01 0.01 0.01 0.02 0.02 0.02 0.02 0.02 0.02 0.02 0.02 0.02 0.02 0.02 0.02 0.02 0.02
0.00 0.00 0.00 0.00 0.00 0.00 0.00 0.00 0.00 0.00 0.00 0.00 0.00 0.00 0.00 0.01 0.01 0.00 0.01 0.01 0.00 0.00 0.01 0.01 0.01 0.01 0.01 0.01 0.01 0.01 0.01 0.02 0.02 0.02 0.02 0.01 0.01 0.02 0.02 0.02 0.02 0.02 0.01 0.01
0.00 0.00 0.00 0.00 0.00 0.00 0.00 0.00 0.00 0.00 0.00 0.00 0.00 0.01 0.01 0.01 0.01 0.01 0.01 0.01 0.01 0.01 0.01 0.01 0.01 0.01 0.01 0.01 0.01 0.01 0.01 0.01 0.01 0.01 0.01 0.01 0.01 0.01 0.01 0.01 0.01 0.01 0.01 0.01
0.00 0.00 0.00 0.00 0.00 0.00 0.01 0.01 0.01 0.01 0.01 0.01 0.00 0.00 0.00 0.00 0.00 0.01 0.01 0.01 0.00 0.01 0.01 0.00 0.00 0.01 0.01 0.01 0.01 0.01 0.01 0.01 0.01 0.01 0.01 0.01 0.01 0.01 0.01 0.01 0.01 0.01 0.01 0.01
0.00 0.00 0.00 0.00 0.00 0.00 0.00 0.01 0.01 0.01 0.01 0.01 0.01 0.01 0.01 0.01 0.01 0.01 0.01 0.00 0.00 0.00 0.00 0.00 0.00 0.00 0.01 0.01 0.01 0.01 0.01 0.01 0.01 0.01 0.01 0.01 0.01 0.01 0.01 0.01 0.01 0.01 0.01 0.01
MSLP
1015.01 1014.87 1014.75 1014.66 1014.61 1014.60 1014.63 1014.72 1014.88 1015.13 1015.46 1015.88 1016.35 1016.84 1017.30 1017.67 1017.89 1017.92 1017.73 1017.29 1016.62 1015.77 1014.77 1013.69 1012.59 1011.53 1010.55 1009.69 1008.94 1008.32 1007.81 1007.40 1007.07 1006.82 1006.65 1006.55 1006.52 1006.58 1006.71 1006.92 1007.19 1007.52 1007.90 1008.30
1015.41 1015.26 1015.13 1015.01 1014.92 1014.88 1014.90 1015.00 1015.19 1015.49 1015.89 1016.38 1016.92 1017.48 1018.01 1018.43 1018.71 1018.79 1018.66 1018.29 1017.72 1016.98 1016.12 1015.19 1014.25 1013.34 1012.50 1011.74 1011.07 1010.49 1009.99 1009.54 1009.16 1008.82 1008.53 1008.30 1008.12 1008.02 1007.98 1008.00 1008.09 1008.23 1008.42 1008.64
1015.87 1015.71 1015.55 1015.40 1015.29 1015.22 1015.24 1015.35 1015.58 1015.92 1016.38 1016.93 1017.54 1018.16 1018.72 1019.19 1019.50 1019.63 1019.55 1019.26 1018.78 1018.15 1017.41 1016.62 1015.81 1015.03 1014.30 1013.63 1013.02 1012.46 1011.95 1011.48 1011.03 1010.62 1010.23 1009.89 1009.60 1009.36 1009.19 1009.06 1009.00 1008.98 1009.01 1009.07
1016.37 1016.18 1015.99 1015.80 1015.66 1015.58 1015.60 1015.72 1015.98 1016.37 1016.87 1017.47 1018.12 1018.77 1019.36 1019.85 1020.19 1020.35 1020.32 1020.09 1019.69 1019.16 1018.53 1017.84 1017.15 1016.46 1015.81 1015.20 1014.62 1014.08 1013.56 1013.05 1012.56 1012.09 1011.65 1011.23 1010.86 1010.54 1010.27 1010.05 1009.88 1009.74 1009.65 1009.58
1016.86 1016.62 1016.38 1016.15 1015.98 1015.88 1015.90 1016.04 1016.32 1016.74 1017.27 1017.90 1018.57 1019.23 1019.84 1020.34 1020.69 1020.88 1020.88 1020.70 1020.37 1019.92 1019.38 1018.78 1018.17 1017.55 1016.96 1016.38 1015.82 1015.28 1014.74 1014.22 1013.70 1013.20 1012.73 1012.28 1011.88 1011.52 1011.21 1010.94 1010.70 1010.50 1010.31 1010.15
1017.28 1016.98 1016.67 1016.40 1016.19 1016.08 1016.10 1016.25 1016.55 1016.99 1017.54 1018.17 1018.84 1019.50 1020.10 1020.59 1020.95 1021.15 1021.18 1021.05 1020.78 1020.40 1019.93 1019.41 1018.86 1018.30 1017.74 1017.18 1016.63 1016.09 1015.55 1015.02 1014.49 1013.99 1013.51 1013.07 1012.66 1012.31 1011.99 1011.70 1011.45 1011.20 1010.97 1010.74
1017.54 1017.17 1016.81 1016.50 1016.27 1016.16 1016.18 1016.35 1016.67 1017.11 1017.66 1018.28 1018.93 1019.56 1020.14 1020.61 1020.96 1021.17 1021.22 1021.14 1020.93 1020.61 1020.21 1019.76 1019.26 1018.75 1018.22 1017.68 1017.14 1016.60 1016.06 1015.53 1015.02 1014.53 1014.07 1013.65 1013.27 1012.93 1012.63 1012.35 1012.09 1011.83 1011.57 1011.29
1017.58 1017.14 1016.74 1016.42 1016.20 1016.11 1016.16 1016.36 1016.69 1017.14 1017.67 1018.27 1018.88 1019.47 1020.00 1020.45 1020.78 1020.99 1021.08 1021.03 1020.88 1020.63 1020.31 1019.92 1019.48 1019.01 1018.52 1018.00 1017.48 1016.95 1016.42 1015.90 1015.40 1014.93 1014.50 1014.11 1013.75 1013.44 1013.15 1012.88 1012.61 1012.34 1012.05 1011.75
1017.36 1016.89 1016.48 1016.18 1016.00 1015.96 1016.06 1016.30 1016.66 1017.12 1017.64 1018.20 1018.77 1019.31 1019.79 1020.20 1020.51 1020.73 1020.83 1020.84 1020.75 1020.57 1020.32 1020.00 1019.63 1019.21 1018.75 1018.27 1017.76 1017.24 1016.73 1016.22 1015.74 1015.29 1014.88 1014.50 1014.16 1013.85 1013.56 1013.27 1012.99 1012.69 1012.37 1012.04
1016.88 1016.41 1016.05 1015.81 1015.71 1015.76 1015.94 1016.24 1016.64 1017.11 1017.62 1018.15 1018.67 1019.16 1019.59 1019.96 1020.25 1020.47 1020.60 1020.66 1020.63 1020.53 1020.35 1020.10 1019.80 1019.43 1019.02 1018.56 1018.08 1017.58 1017.08 1016.59 1016.12 1015.67 1015.26 1014.88 1014.53 1014.20 1013.87 1013.55 1013.22 1012.88 1012.52 1012.14
1016.20 1015.78 1015.49 1015.35 1015.37 1015.53 1015.82 1016.20 1016.66 1017.15 1017.67 1018.17 1018.65 1019.09 1019.47 1019.81 1020.09 1020.30 1020.46 1020.56 1020.59 1020.56 1020.45 1020.28 1020.03 1019.72 1019.35 1018.93 1018.47 1017.99 1017.50 1017.02 1016.55 1016.10 1015.67 1015.27 1014.88 1014.50 1014.13 1013.74 1013.34 1012.93 1012.51 1012.08
1015.41 1015.06 1014.89 1014.88 1015.03 1015.33 1015.73 1016.21 1016.73 1017.26 1017.78 1018.27 1018.72 1019.12 1019.47 1019.78 1020.04 1020.27 1020.45 1020.58 1020.67 1020.69 1020.64 1020.53 1020.33 1020.07 1019.74 1019.35 1018.92 1018.46 1017.98 1017.50 1017.03 1016.57 1016.12 1015.68 1015.25 1014.80 1014.35 1013.88 1013.40 1012.90 1012.40 1011.90
1014.60 1014.36 1014.30 1014.43 1014.72 1015.15 1015.66 1016.23 1016.82 1017.39 1017.93 1018.41 1018.84 1019.22 1019.55 1019.85 1020.10 1020.34 1020.53 1020.70 1020.81 1020.87 1020.87 1020.80 1020.64 1020.42 1020.12 1019.76 1019.36 1018.92 1018.46 1018.00 1017.53 1017.06 1016.59 1016.12 1015.63 1015.13 1014.60 1014.04 1013.47 1012.88 1012.29 1011.72
1013.88 1013.74 1013.80 1014.05 1014.46 1014.99 1015.60 1016.25 1016.89 1017.50 1018.06 1018.55 1018.98 1019.35 1019.67 1019.96 1020.22 1020.46 1020.66 1020.84 1020.98 1021.06 1021.08 1021.02 1020.90 1020.70 1020.43 1020.10 1019.72 1019.32 1018.89 1018.45 1018.01 1017.55 1017.08 1016.58 1016.06 1015.51 1014.91 1014.29 1013.63 1012.96 1012.29 1011.63
1013.30 1013.24 1013.40 1013.74 1014.24 1014.85 1015.52 1016.22 1016.90 1017.53 1018.11 1018.61 1019.05 1019.43 1019.76 1020.05 1020.32 1020.56 1020.77 1020.95 1021.09 1021.18 1021.20 1021.15 1021.03 1020.85 1020.60 1020.30 1019.97 1019.61 1019.23 1018.83 1018.43 1018.00 1017.55 1017.07 1016.54 1015.97 1015.34 1014.66 1013.95 1013.21 1012.46 1011.74
1012.87 1012.89 1013.11 1013.51 1014.05 1014.69 1015.39 1016.11 1016.80 1017.45 1018.04 1018.56 1019.02 1019.41 1019.76 1020.07 1020.34 1020.59 1020.80 1020.98 1021.10 1021.18 1021.19 1021.13 1021.02 1020.84 1020.62 1020.36 1020.07 1019.76 1019.44 1019.12 1018.77 1018.41 1018.01 1017.56 1017.06 1016.49 1015.86 1015.17 1014.42 1013.65 1012.86 1012.07
1012.61 1012.67 1012.92 1013.34 1013.88 1014.52 1015.21 1015.91 1016.59 1017.24 1017.84 1018.37 1018.85 1019.27 1019.64 1019.97 1020.26 1020.52 1020.72 1020.89 1020.99 1021.04 1021.03 1020.97 1020.84 1020.68 1020.48 1020.25 1020.02 1019.78 1019.54 1019.29 1019.03 1018.74 1018.42 1018.03 1017.58 1017.06 1016.45 1015.78 1015.04 1014.25 1013.44 1012.63
1012.46 1012.55 1012.81 1013.21 1013.73 1014.33 1014.97 1015.63 1016.29 1016.92 1017.51 1018.06 1018.55 1019.00 1019.40 1019.76 1020.06 1020.32 1020.52 1020.66 1020.75 1020.77 1020.74 1020.66 1020.53 1020.37 1020.19 1020.01 1019.84 1019.67 1019.50 1019.34 1019.17 1018.98 1018.73 1018.43 1018.05 1017.59 1017.04 1016.41 1015.71 1014.95 1014.15 1013.34
1012.40 1012.51 1012.76 1013.12 1013.58 1014.11 1014.70 1015.30 1015.91 1016.51 1017.09 1017.64 1018.15 1018.62 1019.04 1019.42 1019.74 1019.99 1020.19 1020.32 1020.38 1020.38 1020.32 1020.22 1020.09 1019.94 1019.79 1019.66 1019.54 1019.43 1019.35 1019.27 1019.18 1019.07 1018.91 1018.69 1018.38 1018.00 1017.53 1016.96 1016.33 1015.63 1014.88 1014.10
1012.40 1012.51 1012.73 1013.05 1013.44 1013.90 1014.40 1014.94 1015.50 1016.06 1016.61 1017.15 1017.67 1018.15 1018.59 1018.97 1019.30 1019.55 1019.73 1019.84 1019.88 1019.86 1019.78 1019.67 1019.54 1019.41 1019.29 1019.20 1019.13 1019.08 1019.06 1019.05 1019.04 1018.99 1018.90 1018.75 1018.53 1018.22 1017.83 1017.35 1016.80 1016.18 1015.52 1014.82
1012.42 1012.54 1012.73 1012.99 1013.31 1013.69 1014.12 1014.58 1015.07 1015.58 1016.10 1016.62 1017.13 1017.61 1018.04 1018.42 1018.74 1018.98 1019.15 1019.24 1019.25 1019.21 1019.13 1019.02 1018.90 1018.78 1018.69 1018.63 1018.61 1018.62 1018.65 1018.69 1018.72 1018.73 1018.70 1018.60 1018.44 1018.21 1017.90 1017.51 1017.06 1016.55 1016.00 1015.40
1012.45 1012.56 1012.72 1012.93 1013.19 1013.49 1013.83 1014.22 1014.64 1015.10 1015.57 1016.06 1016.54 1017.00 1017.41 1017.77 1018.07 1018.29 1018.43 1018.50 1018.49 1018.44 1018.35 1018.24 1018.14 1018.05 1017.99 1017.97 1017.98 1018.03 1018.10 1018.18 1018.25 1018.30 1018.30 1018.25 1018.14 1017.97 1017.74 1017.44 1017.10 1016.70 1016.27 1015.81
1012.47 1012.57 1012.70 1012.86 1013.05 1013.27 1013.54 1013.85 1014.21 1014.60 1015.02 1015.46 1015.90 1016.32 1016.70 1017.02 1017.29 1017.47 1017.58 1017.62 1017.60 1017.54 1017.46 1017.36 1017.28 1017.22 1017.20 1017.21 1017.27 1017.35 1017.45 1017.56 1017.66 1017.73 1017.76 1017.74 1017.68 1017.56 1017.39 1017.18 1016.94 1016.66 1016.36 1016.03
1012.47 1012.55 1012.64 1012.74 1012.87 1013.03 1013.23 1013.47 1013.76 1014.09 1014.46 1014.84 1015.23 1015.59 1015.92 1016.20 1016.41 1016.56 1016.63 1016.65 1016.61 1016.54 1016.46 1016.39 1016.33 1016.31 1016.33 1016.39 1016.48 1016.61 1016.74 1016.88 1017.00 1017.09 1017.14 1017.16 1017.13 1017.05 1016.95 1016.81 1016.65 1016.48 1016.29 1016.09
1012.43 1012.48 1012.53 1012.58 1012.65 1012.75 1012.89 1013.07 1013.30 1013.58 1013.89 1014.21 1014.54 1014.85 1015.12 1015.34 1015.50 1015.60 1015.64 1015.62 1015.57 1015.50 1015.43 1015.37 1015.35 1015.37 1015.43 1015.54 1015.68 1015.85 1016.02 1016.19 1016.34 1016.46 1016.54 1016.58 1016.58 1016.55 1016.49 1016.41 1016.32 1016.23 1016.14 1016.04
1012.32 1012.34 1012.35 1012.35 1012.38 1012.43 1012.53 1012.67 1012.86 1013.08 1013.34 1013.62 1013.90 1014.15 1014.37 1014.53 1014.64 1014.69 1014.68 1014.64 1014.56 1014.49 1014.42 1014.39 1014.40 1014.46 1014.57 1014.73 1014.92 1015.14 1015.35 1015.56 1015.75 1015.90 1016.01 1016.08 1016.11 1016.11 1016.08 1016.05 1016.01 1015.97 1015.93 1015.90
1012.16 1012.14 1012.11 1012.08 1012.08 1012.11 1012.18 1012.29 1012.46 1012.66 1012.89 1013.13 1013.37 1013.57 1013.74 1013.85 1013.90 1013.90 1013.86 1013.78 1013.68 1013.60 1013.54 1013.52 1013.55 1013.64 1013.80 1014.00 1014.24 1014.50 1014.77 1015.02 1015.25 1015.44 1015.58 1015.68 1015.74 1015.76 1015.76 1015.75 1015.73 1015.72 1015.71 1015.70
Thickness
5489 5494 5497 5500 5502 5497 5493 5494 5491 5500 5499 5509 5507 5504 5503 5501 5500 5500 5499 5498 5498 5498 5498 5499 5500 5502 5505 5507 5509 5511 5513 5514 5516 5518 5520 5522 5525 5528 5530 5533 5535 5539 5543 5546
5490 5497 5496 5501 5505 5502 5502 5501 5499 5501 5504 5511 5507 5503 5501 5500 5499 5497 5496 5495 5495 5495 5494 5494 5495 5497 5499 5500 5502 5503 5505 5506 5507 5509 5511 5512 5513 5516 5519 5521 5524 5527 5531 5535
5487 5490 5501 5507 5513 5509 5508 5507 5506 5507 5512 5511 5508 5505 5502 5499 5497 5495 5494 5492 5490 5489 5488 5489 5490 5491 5492 5493 5495 5496 5497 5498 5500 5501 5501 5502 5503 5505 5507 5510 5513 5515 5519 5522
5478 5490 5508 5523 5520 5516 5515 5515 5512 5514 5513 5510 5508 5504 5501 5498 5496 5493 5492 5489 5487 5485 5484 5484 5484 5484 5485 5486 5488 5489 5489 5490 5491 5492 5492 5493 5495 5495 5495 5497 5499 5502 5505 5508
5476 5481 5498 5520 5520 5515 5514 5519 5518 5515 5513 5508 5503 5502 5500 5499 5495 5493 5490 5487 5484 5482 5480 5480 5479 5479 5480 5480 5481 5482 5482 5483 5483 5483 5483 5484 5484 5483 5484 5485 5486 5489 5492 5495
5473 5486 5506 5529 5522 5517 5519 5520 5522 5516 5511 5505 5502 5500 5503 5500 5494 5490 5487 5484 5481 5479 5477 5476 5475 5475 5475 5474 5474 5474 5474 5475 5475 5475 5474 5474 5473 5473 5473 5473 5475 5477 5479 5482
5472 5477 5496 5515 5514 5517 5516 5527 5524 5515 5511 5504 5502 5503 5501 5495 5491 5488 5485 5482 5479 5476 5474 5472 5471 5471 5470 5469 5468 5467 5467 5467 5467 5466 5466 5465 5464 5463 5463 5463 5464 5465 5468 5470
5471 5477 5502 5515 5511 5512 5518 5520 5517 5513 5509 5504 5501 5497 5494 5492 5488 5485 5481 5479 5476 5473 5470 5469 5467 5466 5465 5463 5462 5461 5459 5459 5458 5457 5457 5457 5455 5454 5454 5453 5454 5454 5456 5457
5485 5504 5511 5508 5510 5514 5512 5512 5512 5508 5505 5501 5496 5493 5491 5488 5484 5481 5478 5475 5472 5469 5466 5464 5462 5460 5458 5456 5455 5453 5452 5450 5450 5450 5449 5449 5447 5446 5445 5445 5444 5444 5445 5446
5481 5499 5504 5504 5505 5507 5508 5508 5508 5505 5502 5498 5494 5491 5487 5483 5480 5477 5474 5471 5468 5465 5462 5459 5456 5453 5451 5448 5446 5445 5443 5442 5442 5441 5441 5440 5439 5437 5436 5435 5435 5434 5434 5434
5481 5495 5499 5508 5508 5508 5506 5504 5502 5501 5498 5495 5491 5487 5483 5479 5476 5473 5470 5466 5463 5460 5457 5453 5450 5447 5444 5441 5438 5436 5435 5434 5433 5432 5430 5429 5428 5426 5425 5425 5424 5424 5424 5424
5498 5504 5501 5509 5510 5505 5501 5500 5498 5495 5493 5490 5487 5484 5480 5476 5472 5467 5464 5460 5457 5454 5451 5447 5443 5440 5437 5433 5430 5428 5427 5425 5424 5422 5420 5419 5418 5417 5417 5416 5416 5415 5414 5414
5500 5501 5498 5502 5501 5500 5498 5497 5494 5492 5489 5485 5482 5479 5475 5471 5467 5462 5458 5454 5451 5448 5444 5440 5436 5433 5429 5426 5423 5420 5417 5415 5413 5412 5410 5408 5407 5406 5406 5406 5405 5404 5403 5403
5489 5489 5491 5494 5493 5493 5491 5490 5487 5485 5482 5479 5476 5472 5468 5464 5460 5456 5453 5449 5445 5440 5436 5432 5429 5425 5422 5418 5414 5411 5408 5405 5403 5400 5399 5397 5395 5394 5393 5393 5393 5392 5392 5392
5484 5483 5486 5488 5486 5484 5482 5479 5477 5474 5472 5470 5468 5465 5461 5457 5453 5450 5445 5441 5437 5432 5428 5424 5420 5417 5413 5409 5405 5402 5398 5395 5392 5389 5387 5385 5383 5382 5381 5380 5379 5379 5379 5380
5480 5476 5475 5475 5475 5474 5472 5470 5469 5468 5465 5462 5459 5457 5454 5450 5445 5441 5436 5431 5427 5424 5420 5416 5412 5408 5404 5400 5396 5393 5389 5386 5383 5379 5376 5374 5372 5370 5369 5367 5366 5365 5365 5366
5469 5470 5469 5468 5468 5466 5465 5464 5464 5462 5458 5454 5451 5447 5443 5438 5434 5430 5426 5423 5419 5415 5411 5407 5404 5400 5395 5391 5387 5383 5379 5376 5373 5369 5365 5363 5360 5358 5356 5354 5353 5352 5351 5351
5467 5468 5467 5464 5463 5460 5459 5457 5455 5453 5450 5447 5442 5437 5433 5429 5426 5422 5417 5412 5408 5404 5401 5398 5395 5391 5387 5382 5378 5374 5370 5367 5363 5359 5356 5353 5350 5347 5344 5342 5341 5339 5339 5338
5459 5459 5459 5458 5456 5454 5452 5450 5448 5446 5442 5438 5433 5429 5425 5421 5417 5413 5408 5402 5399 5396 5393 5389 5386 5382 5377 5373 5369 5365 5361 5358 5354 5350 5346 5344 5340 5336 5333 5330 5328 5327 5326 5325
5450 5451 5451 5450 5449 5447 5445 5443 5439 5436 5433 5428 5424 5419 5415 5411 5407 5402 5398 5394 5392 5389 5385 5381 5377 5372 5368 5364 5361 5356 5352 5348 5344 5340 5336 5332 5329 5325 5321 5319 5317 5315 5313 5312
5442 5442 5442 5441 5440 5439 5437 5434 5430 5426 5423 5419 5415 5411 5407 5402 5397 5393 5389 5386 5384 5380 5376 5372 5367 5363 5359 5356 5352 5347 5342 5338 5334 5330 5326 5321 5318 5314 5311 5307 5305 5303 5302 5300
5431 5431 5431 5431 5429 5427 5426 5423 5420 5417 5413 5408 5405 5401 5396 5392 5387 5383 5381 5378 5376 5372 5367 5362 5358 5354 5351 5347 5341 5336 5332 5327 5323 5318 5314 5310 5306 5303 5300 5297 5294 5293 5291 5289
5420 5421 5421 5420 5419 5416 5413 5411 5409 5406 5403 5399 5395 5391 5387 5383 5379 5375 5372 5369 5365 5362 5358 5353 5349 5346 5342 5336 5330 5325 5321 5316 5312 5307 5303 5299 5295 5292 5289 5287 5284 5282 5280 5279
5411 5410 5409 5408 5406 5404 5401 5400 5397 5395 5391 5388 5385 5381 5377 5373 5369 5366 5363 5360 5356 5353 5348 5344 5341 5337 5332 5325 5319 5314 5310 5305 5301 5297 5293 5289 5285 5282 5279 5276 5274 5272 5271 5269
5400 5398 5396 5395 5394 5394 5391 5388 5385 5381 5378 5375 5373 5369 5366 5364 5360 5356 5351 5348 5345 5341 5336 5333 5330 5326 5320 5314 5309 5305 5300 5296 5291 5287 5283 5279 5275 5272 5269 5267 5264 5263 5261 5260
5389 5388 5387 5386 5385 5382 5380 5377 5374 5371 5368 5364 5361 5358 5354 5351 5348 5344 5340 5337 5334 5330 5325 5321 5318 5314 5308 5304 5299 5295 5291 5286 5282 5277 5273 5269 5266 5263 5261 5258 5256 5254 5253 5252
5379 5377 5375 5373 5372 5369 5367 5365 5363 5360 5357 5355 5351 5347 5343 5340 5336 5333 5329 5326 5322 5317 5314 5310 5306 5302 5298 5294 5290 5286 5281 5277 5273 5268 5264 5261 5258 5255 5253 5251 5249 5247 5246 5245